Regional Weather Roundup
Issued by NWS Little Rock, AR

Home | Current Version | Previous Version | Graphics & Text | Print | Product List | Glossary On
Versions: 1 2 3 4 5 6 7 8 9 10 11 12 13 14 15 16 17 18 19 20 21 22 23 24 25 26 27 28
000
ASUS44 KLZK 291605
RWRLZK

WEATHER ROUNDUP FOR ARKANSAS
NATIONAL WEATHER SERVICE LITTLE ROCK AR
1100 AM CDT FRI JUL 29 2016

NOTE: "FAIR" INDICATES FEW OR NO CLOUDS BELOW 12,000 FEET WITH NO
SIGNIFICANT WEATHER AND/OR OBSTRUCTIONS TO VISIBILITY.

ARZ001-003-010-029-291700-
NORTHWEST ARKANSAS

CITY           SKY/WX    TMP DP  RH WIND       PRES   REMARKS
FAYETTEVILLE   CLOUDY    81  76  84 W10       30.02R HX  87
FORT SMITH     CLOUDY    86  72  62 W12       29.98R HX  92
HARRISON       MOSUNNY   84  72  67 W6        30.01S HX  89
BENTONVILLE    CLOUDY    81  72  74 W9        30.03R
ROGERS         CLOUDY    80  74  81 W13       30.02S HX  85
SILOAM SPGS    CLOUDY    79  66  65 W12G20    30.03S
HIGHFILL       PTSUNNY   80  75  84 W12       30.02R HX  85
SPRINGDALE     PTSUNNY   82  73  74 W10       30.03S HX  88
$$

ARZ004-005-016-291700-
NORTH CENTRAL ARKANSAS

CITY           SKY/WX    TMP DP  RH WIND       PRES   REMARKS
BATESVILLE     CLOUDY    84  75  74 N3        29.98S HX  92
FLIPPIN        CLOUDY    82  73  74 SE3       29.96R HX  88
MTN HOME       MOSUNNY   83  74  74 CALM      29.98S HX  89
$$

ARZ040-041-291700-
WEST CENTRAL ARKANSAS

CITY           SKY/WX    TMP DP  RH WIND       PRES   REMARKS
MENA             N/A    N/A N/A N/A MISG        N/A
MOUNT IDA      SUNNY     86  74  67 VRB3      29.99S HX  94
$$

ARZ009-017-025-026-028-291700-
NORTHEAST ARKANSAS

CITY           SKY/WX    TMP DP  RH WIND       PRES   REMARKS
CORNING          N/A     82  77  83 W8        29.97S HX  91
JONESBORO      CLOUDY    77  75  93 SW8       29.97S
NEWPORT        CLOUDY    80  76  87 SW6       29.99S HX  85
WALNUT RIDGE   PTSUNNY   82  73  74 SW5       29.96R HX  88
BLYTHEVILLE    CLOUDY    78  75  90 SW12      29.98S
NW BLYTHEVILLE CLOUDY    79  75  89 SW8       29.97F
$$

ARZ022-023-033-042-044-291700-
CENTRAL ARKANSAS

CITY           SKY/WX    TMP DP  RH WIND       PRES   REMARKS
LITTLE ROCK    CLOUDY    83  73  72 W8        29.98F HX  89
N LITTLE ROCK    N/A     81  75  83 W7        29.97F HX  87
JACKSONVILLE   MOSUNNY   85  76  73 SW9       29.98S HX  94
SEARCY         CLOUDY    80  76  87 SW7       30.00R HX  86
HOT SPRINGS    MOSUNNY   84  73  69 VRB6      30.01F HX  90
RUSSELLVILLE   MOSUNNY   86  77  74 VRB3      29.97S HX  97
$$

ARZ036-291700-
EAST ARKANSAS

CITY           SKY/WX    TMP DP  RH WIND       PRES   REMARKS
WEST MEMPHIS   CLOUDY    77  73  87 SW6       29.98F
$$

ARZ050-053-066-070-073-291700-
SOUTHWEST ARKANSAS

CITY           SKY/WX    TMP DP  RH WIND       PRES   REMARKS
ARKADELPHIA    CLOUDY    84  75  74 SW8       30.01F HX  92
CAMDEN         CLOUDY    84  73  70 SW6       30.02F HX  91
TEXARKANA      MOSUNNY   86  75  69 SW10      30.01F HX  95
EL DORADO      PTSUNNY   83  76  79 SW9       30.04F HX  91
DE QUEEN       CLOUDY    83  75  77 W6        29.99S HX  90
$$

ARZ056-057-069-291700-
SOUTHEAST ARKANSAS

CITY           SKY/WX    TMP DP  RH WIND       PRES   REMARKS
PINE BLUFF     SUNNY     83  73  72 SW12      30.00F HX  89
STUTTGART      CLOUDY    82  72  69 W10       30.00S HX  87
MONTICELLO     MOSUNNY   84  74  71 SW8       30.02S HX  91

$$






USA.gov is the U.S. government's official web portal to all federal, state and local government web resources and services.